FENGYUN 1C DEB

Satellite information

Favourite Embed

Satellite Type and Status

DEBRISIN ORBIT

Key statistics

Satellite FENGYUN 1C DEB at a glance.

Uptime

9555

Days in orbit

Revolutions

≈ 14.1

Per day

Orbit

SSO

Sun Synchronous Orbit

Inclination

98.8

Latest

Satellite identification and parameters

Extended collection of information and parameters for FENGYUN 1C DEB.

Object identification

Identified? True

Debris? True

Object name: FENGYUN 1C DEB

International designator: 1999-025JT

Object number (NORAD): 29945

Object ID (CCSDS): 29945

Country: PEOPLES REPUBLIC OF CHINA (PRC)

Current information (Y/N): Y

RCS size: MEDIUM

Orbital parameters

Period: 102.455 minutes

Inclination: 98.8062 deg

SMA: 7252.952 km

Apoapsis: 898.16 km

Periapsis: 851.475 km

RAAN: 214.8681 deg

Eccentricy: 0.0032183

Argument of periapsis: 90.126 deg

Mean anomaly: 25.4192 deg

Mean motion: 14.05498936 rev/day

Mean motion (dot): 0.00000217 rev/day2

B* drag term: 0.00015893 1/REarth

Two-line elements (TLE)

Creation date: July 5, 2025, 5:45 p.m.

Reference frame: TEME

Reference center: EARTH

Epoch: July 5, 2025, 2:09 p.m. UTC

TLE line 0: 0 FENGYUN 1C DEB

TLE line 1: 1 29945U 99025JT 25186.59002696 .00000217 00000-0 15893-3 0 9992

TLE line 2: 2 29945 98.8062 214.8681 0032183 90.1260 25.4192 14.05498936947281

Live tracking on map

Real-time ground track for satellite FENGYUN 1C DEB.

In-orbit conjunctions

A list of the most updated potential collisions computed for object FENGYUN 1C DEB.

Target Orbit TCA Probability of collision Miss distance Type
CZ-6A DEB LEO 2025-05-02 06:11:46 0.0003054782 50.0 (m) DEBRIS
METEOR 2-8 DEB LEO 2024-09-02 18:31:57 0.0002953848 149.0 (m) DEBRIS

Associated space launch

Chinese polar orbiting meteorological satellite

FENGYUN 1C DEB was lifted into orbit during the mission ‘Long March 4B | Feng Yun 1C’, on board a Long March 4B space rocket.

The launch took place on May 10, 1999, 1:33 a.m. from Launch Complex 7.

For more information about the launch, click the button.

Launch to space Long March 4B | Feng Yun 1C
Long March 4B | Feng Yun 1C

Agency: N/A

Status: Launch Successful

Launch date: May 10, 1999, 1:33 a.m. UTC

Rocket: Long March 4B

Launch pad: Launch Complex 7

Location: Taiyuan Satellite Launch Center, People's Republic of China

...

Latest news about this satellite

There are no fresh news available about this satellite. Check back as we update our databases every day.


Newsletter sign-up

Weekly statistics, charts and insights to help you stay on top of the space industry.